Tracking 19153 objects as of 26-Apr-2018
HD Live streaming from Space Station
objects crossing your sky now

VANGUARD R/B

Track VANGUARD R/B now!
10-day predictions


NORAD ID: 16
Int'l Code: 1958-002A
Perigee: 661.6 km
Apogee: 4,230.2 km
Inclination: 34.3 °
Period: 137.3 minutes
Semi major axis: 8816 km
RCS: 0.2285 m2 (medium)
Launch date: March 17, 1958
Source: United States (US)
Launch site: AIR FORCE EASTERN TEST RANGE (AFETR)

Note: This is a ROCKET BODY
aabbcc
Your satellite tracking list
Your tracking list is empty




NASA's NSSDC Master Catalog

Two Line Element Set (TLE):
1    16U 58002A   18115.71673974 +.00000153 +00000-0 +20686-3 0  9996
2    16 034.2618 257.7353 2023773 173.1936 190.1142 10.48645598376553
Source of the keplerian elements: AFSPC